カタログに戻る

ARIANE 5 R/B

LostMEO
NORAD 41863·ROCKET BODY·🇫🇷 France

打ち上げ Nov 17, 2016 から Guiana Space Centre

Loading…

次のパス (今後24時間)

TLE

古いSource: Space-Track

元期: Aug 4, 2026, 03:42 UTC

1 41863U 16069E   26216.15470780 -.00000003  00000-0  00000-0 0  9997
2 41863  55.5193  95.8612 0002888  14.6175 345.4689  1.73306866 61469

AllMySatでARIANE 5 R/Bをリアルタイム追跡

Download on the App Store